Overview Statistics Trail Chart Weather Telemetry Raw packets
 

This is the latest recevied weather packets stored in our database for station/object IZ5RIE-13. If no packets are shown the sender has not sent any weather packets the latest 10 day(s).

<< 30 31 32 33 34 35 36 >>
Time Temp. Humidity Pressure Rain* Wind** Luminosity Snow
1788122484 25.56° C 100% 1016.7 hPa - - - -
1788121584 25.56° C 100% 1016.8 hPa - - - -
1788120684 25.56° C 100% 1016.7 hPa - - - -
1788119787 26.11° C 100% 1016.6 hPa - - - -
1788118887 26.11° C 100% 1016.5 hPa - - - -
1788117987 26.11° C 100% 1016.5 hPa - - - -
1788117087 26.11° C 100% 1016.3 hPa - - - -
1788116186 26.67° C 100% 1016.3 hPa - - - -
1788115286 26.67° C 100% 1016.1 hPa - - - -
1788114386 26.67° C 100% 1015.9 hPa - - - -
1788113486 27.22° C 100% 1015.8 hPa - - - -
1788112586 27.78° C 100% 1015.7 hPa - - - -
1788111686 28.89° C 100% 1015.6 hPa - - - -
1788110785 30° C 100% 1015.5 hPa - - - -
1788109885 32.22° C 100% 1015.5 hPa - - - -
1788108985 33.89° C 100% 1015.5 hPa - - - -
1788108085 35.56° C 88% 1015.5 hPa - - - -
1788107185 36.11° C 86% 1015.5 hPa - - - -
1788106285 35.56° C 82% 1015.5 hPa - - - -
1788105385 35.56° C 81% 1015.5 hPa - - - -
1788104484 35.56° C 84% 1015.6 hPa - - - -
1788103584 35° C 87% 1015.6 hPa - - - -
1788102684 35° C 82% 1015.7 hPa - - - -
1788101784 35° C 85% 1015.6 hPa - - - -
1788100894 33.89° C 87% 1015.7 hPa - - - -

* Rain since midnight (hover to see other rain measurements)
** Current wind speed in m/s (hover to see current wind gust speed)